Weather Roundup
Issued by NWS Corpus Christi, TX

Current Version | Previous Version | Text Only | Print | Product List | Glossary On
Versions: 1 2 3 4 5 6 7 8 9 10 11 12 13 14 15 16 17 18 19 20 21 22 23 24 25 26 27 28 29 30 31 32 33 34 35 36 37 38 39 40 41 42 43 44 45 46 47 48 49 50
000
ASUS44 KCRP 220010
HRRCRP

SOUTH TEXAS REGIONAL WEATHER ROUNDUP
NATIONAL WEATHER SERVICE CORPUS CHRISTI TX
700 PM CDT MON AUG 21 2017


TXZ229>244-220100-
...CORPUS CHRISTI AREA OBSERVATIONS...

CITY           SKY/WX    TMP DP  RH WIND       PRES   REMARKS
CORPUS CHRISTI MOSUNNY   89  74  60 E14       29.99R HX  98
NAS CORPUS CHR MOSUNNY   88  76  67 E16       30.00R HX  99
ROCKPORT       SUNNY     88  74  63 SE12      30.00R HX  96
KINGSVILLE ARP FAIR      92  73  53 E14       29.98R HX 100
KINGSVILLE NAS MOSUNNY   90  74  59 E15G23    29.98R HX  99
ALICE          SUNNY     92  68  45 E16       29.97R HX  96
FALFURRIAS     SUNNY     92  68  45 E10G17    29.96S HX  95
$$

...VICTORIA AREA OBSERVATIONS...

CITY           SKY/WX    TMP DP  RH WIND       PRES   REMARKS
PORT LAVACA    SUNNY     88  73  62 SE14G20   30.01R HX  96
VICTORIA       SUNNY     90  69  50 SE14      30.00R HX  94
BEEVILLE       FAIR      93  69  45 SE15      29.98S HX  98
PLEASANTON     NOT AVBL
SAN ANTONIO    MOSUNNY   92  66  42 SE9       30.00F HX  94
$$

...LAREDO AREA OBSERVATIONS...

CITY           SKY/WX    TMP DP  RH WIND       PRES   REMARKS
LAREDO         PTSUNNY   99  66  33 E15       29.93F HX 103
COTULLA        MOSUNNY   97  63  32 E12       29.94F HX  98
DEL RIO        SUNNY     95  61  32 E12G17    29.95F HX  95
MCALLEN        PTSUNNY   92  70  48 E14       29.95R HX  97
HEBBRONVILLE   SUNNY     94  61  33 SE16      29.98R HX  94
$$

...OTHER TEXAS OBSERVATIONS...

CITY           SKY/WX    TMP DP  RH WIND       PRES   REMARKS
BROWNSVILLE    MOSUNNY   87  75  67 E14       29.98R HX  96
HOUSTON        MOSUNNY   86  74  67 NE12      30.03R HX  94
COL. STATION   MOSUNNY   92  72  51 SE13      30.01S HX  99
AUSTIN         MOSUNNY   96  65  35 E5        29.99F HX  98
WACO           SUNNY     93  66  40 S10       30.00F HX  96
FORT WORTH     MOSUNNY   93  68  43 S9        29.99F HX  97
WICHITA FALLS  MOSUNNY   91  67  44 S10       29.98F HX  94
LUBBOCK        CLOUDY    76  66  71 S9        30.11F
EL PASO        MOSUNNY   86  62  44 CALM      30.08F
$$

...MARINE OBSERVATIONS...

STATION/POSITION TIME  SKY/WX   TEMP    WIND        PRES    VSBY  WAVE   SWELL
                                AIR SEA DIR/SP/G                  HT/PER HT/PER
                 (UTC)          (F)     (DEG/KT/KT) (MB)    (MI)  (FT/S) (FT/S)
PORT ARANSAS     2300            84 85     CALM     1016.2F
BUOY 90 E PORT A 2250            85 85   90/ 10/ 12 1016.4          2/ 5   2/ 5
BUOY 45 SE BAFFI 2250            85     100/ 10/ 12 1014.5          2/ 5   2/ 7
BUOY 200 E PT IS 2250            80 88   90/ 21/ 29 1016.1          3/ 5
BUOY 15 E GALVES NOT AVBL
$$




USA.gov is the U.S. government's official web portal to all federal, state and local government web resources and services.